GFSNW_700_spd_150.txt.gz
Wind_Speed
31 28 27 27 27 30 36 35 35 40 32 41 42 53 53 52 50 32 28 19 24 28 25 10 11 22 21 24 14 14 27 20 34 38 31 17 25 37 35 16 9 27 15 7
34 32 30 28 26 25 29 38 39 43 36 46 47 46 53 56 55 44 28 26 21 25 25 18 17 19 22 22 20 7 12 11 16 9 23 26 28 32 29 29 25 18 9 8
35 33 31 29 29 27 27 34 33 42 47 35 44 49 49 57 56 51 34 28 28 25 30 30 22 18 16 28 34 19 19 19 18 14 10 24 23 28 30 25 26 24 32 18
33 32 31 28 27 30 32 33 41 32 20 38 38 46 51 52 58 56 44 34 42 36 32 29 24 22 19 17 20 26 19 23 12 18 28 17 19 18 23 28 28 25 32 34
37 36 34 32 29 27 34 37 43 39 30 42 28 39 53 53 50 55 56 41 32 38 35 37 28 25 27 22 22 21 22 25 23 21 16 19 23 28 33 31 31 29 30 36
37 38 37 35 33 33 34 38 39 31 36 37 34 33 49 48 46 42 48 50 47 34 40 37 32 30 26 23 23 23 23 27 26 23 26 20 15 34 24 25 29 30 31 34
34 36 37 36 38 38 36 34 37 44 45 32 27 26 40 46 49 47 35 29 41 50 38 36 36 36 33 31 31 28 24 23 23 20 17 8 32 32 29 27 35 34 39 41
38 36 36 36 38 40 38 36 37 41 45 46 40 31 28 35 41 41 41 34 24 35 33 31 28 31 29 34 37 28 27 24 19 9 17 14 22 26 24 23 36 36 37 30
37 38 40 36 37 39 38 36 35 38 41 33 24 14 30 27 24 40 34 28 41 29 32 33 27 19 24 10 18 22 26 29 30 13 7 7 31 22 10 11 32 16 17 17
36 34 38 34 36 37 37 35 34 35 44 39 37 24 6 16 24 29 29 33 30 41 29 33 28 27 31 25 22 17 29 27 34 31 13 17 23 11 8 23 25 13 20 20
34 34 36 35 35 36 36 33 32 34 41 41 47 43 28 13 21 30 35 26 35 31 34 22 14 12 16 14 21 24 24 21 21 26 14 13 9 26 27 18 22 19 15 17
30 36 35 35 33 34 32 32 31 34 37 33 36 50 30 22 26 22 37 27 27 32 25 20 13 6 6 4 13 16 20 26 25 22 16 11 15 11 20 25 23 22 19 18
30 32 32 30 32 32 31 30 26 30 33 34 31 38 40 18 20 22 26 39 29 24 26 21 12 12 13 16 9 8 14 15 17 18 18 12 11 13 13 13 15 20 21 18
27 28 28 29 30 30 29 28 25 27 26 28 30 34 16 8 8 16 29 32 31 20 17 17 19 19 17 17 14 13 20 23 25 23 19 16 19 16 12 15 17 17 23 23
25 26 28 29 27 27 26 25 28 28 26 11 30 30 25 8 4 15 5 13 18 16 13 14 14 13 11 17 16 23 16 17 19 24 24 24 24 24 21 24 22 20 24 24
27 28 28 25 25 25 28 25 30 31 27 15 18 24 20 17 14 7 10 8 8 11 14 13 15 17 14 9 16 17 14 19 20 22 23 21 18 20 25 24 25 24 21 18
22 20 21 22 25 28 32 27 27 33 36 21 7 19 18 19 19 17 14 10 9 11 12 14 15 16 19 23 24 20 22 23 25 26 25 27 25 25 24 24 24 23 25 28
16 17 20 25 28 28 27 29 27 35 35 36 10 8 17 18 20 18 16 10 10 10 11 15 13 13 20 26 30 28 29 33 32 29 27 28 28 27 25 25 26 25 26 26
14 19 24 28 32 32 34 24 21 39 26 13 13 25 22 20 21 22 18 14 12 13 15 15 14 19 22 28 19 22 24 26 19 18 29 26 24 23 23 23 23 21 19 21
23 25 30 16 28 33 30 31 26 26 15 7 18 21 18 21 19 19 16 10 9 8 9 11 17 28 25 23 23 26 22 15 13 17 20 21 26 27 28 28 24 19 18 17
35 32 36 42 37 23 20 12 8 9 10 13 19 15 13 18 17 18 12 7 5 3 4 6 8 25 19 18 15 15 17 17 19 18 18 16 22 27 28 26 21 19 16 16
33 35 32 27 23 12 7 11 8 9 7 14 18 14 13 18 15 11 8 5 4 2 5 5 7 11 19 15 11 8 13 16 22 22 23 22 24 21 20 20 20 18 18 19
24 23 19 9 4 5 6 6 7 7 12 15 18 17 15 16 12 7 7 6 5 5 5 6 12 15 15 15 9 7 7 4 11 19 17 14 22 13 13 18 19 20 21 22
11 7 6 4 4 3 4 7 4 8 9 14 21 20 18 13 15 7 6 7 5 5 7 11 13 14 11 9 7 3 6 9 10 11 16 15 15 19 13 17 22 24 23 22
6 4 3 3 5 7 6 6 7 7 9 13 24 19 14 12 8 7 7 6 6 8 9 9 9 9 6 5 7 9 9 10 12 15 16 17 18 17 16 18 21 21 20 18
3 1 1 3 6 9 10 10 10 10 11 13 18 18 10 10 7 8 10 6 8 9 8 6 7 6 3 3 7 10 9 10 13 17 20 20 17 17 17 17 16 15 13 13
4 10 8 9 11 11 12 14 15 14 15 17 17 11 9 6 9 13 14 22 20 15 11 10 11 9 8 10 11 12 11 10 10 12 14 14 15 14 13 12 12 11 11 11

GFSNW_700_spd_156.txt.gz
Wind_Speed
30 24 24 24 25 25 26 29 32 33 28 37 37 40 45 43 48 24 27 24 22 19 13 21 30 32 29 17 20 26 29 20 18 20 11 12 26 32 30 15 7 8 4 11
35 33 30 27 25 25 24 28 30 34 31 36 37 44 36 49 51 28 18 27 27 25 17 7 24 27 24 29 18 6 13 14 4 7 21 22 23 20 18 20 10 13 8 6
35 36 34 31 29 28 28 28 29 34 36 34 40 38 46 44 43 42 40 31 30 28 30 22 12 16 18 25 19 19 19 10 10 4 1 2 15 28 27 23 13 11 20 25
39 38 37 34 32 31 30 31 32 32 17 44 43 22 37 38 37 42 27 30 38 36 33 31 27 23 21 19 22 14 15 24 25 22 12 9 13 15 15 23 31 19 26 30
41 40 39 37 35 33 32 35 36 35 32 20 31 47 43 32 39 30 24 28 41 34 39 43 29 18 16 16 28 20 27 23 20 28 23 25 26 23 18 22 23 31 29 39
32 39 39 42 41 36 38 39 37 36 35 34 31 28 32 26 25 27 35 40 39 32 43 36 37 42 37 29 16 16 22 18 19 13 15 20 16 34 28 28 30 36 31 35
34 34 36 34 35 40 39 36 36 35 37 35 35 37 38 32 22 22 18 20 32 36 33 33 35 35 36 37 43 23 22 21 15 7 8 7 19 18 13 16 18 27 35 29
37 36 36 35 34 35 35 35 35 34 36 32 30 29 32 41 43 37 27 25 23 27 26 30 32 36 36 44 43 50 28 29 17 9 15 20 24 20 16 21 25 23 28 29
36 36 35 35 37 38 38 37 34 35 35 40 32 31 30 30 35 40 43 30 29 25 27 29 18 14 21 11 21 29 24 29 31 19 8 5 25 22 15 7 23 18 22 23
41 40 38 36 34 36 39 38 37 37 40 40 34 33 33 28 26 25 24 33 30 30 33 23 19 27 24 18 21 20 18 24 31 30 17 20 26 17 9 14 28 20 11 21
43 41 38 36 36 34 36 36 35 36 39 38 34 32 33 30 26 29 29 18 22 23 34 30 22 10 20 27 25 22 24 19 24 23 18 16 36 22 28 27 17 21 14 11
37 41 41 38 36 36 35 41 38 36 37 37 32 33 32 32 28 30 40 35 30 10 13 21 16 20 14 7 5 20 17 31 18 22 27 20 19 16 15 20 20 21 20 15
32 34 34 35 38 37 39 41 45 40 36 32 34 33 26 29 29 31 40 39 35 27 17 9 17 13 16 19 27 29 30 30 30 32 40 34 30 25 25 22 19 22 24 21
30 32 32 33 34 32 38 38 47 32 28 32 29 22 25 24 31 33 40 39 35 32 32 31 24 25 21 23 20 20 21 25 20 15 27 16 25 23 18 18 17 15 13 10
28 30 29 30 35 32 35 40 31 23 24 17 19 20 25 28 23 26 31 39 37 40 39 32 25 26 22 22 24 27 23 24 21 13 7 14 13 14 16 19 16 12 10 10
25 27 26 27 30 31 34 25 23 23 22 22 32 30 17 19 25 24 24 31 41 41 36 30 30 24 17 11 20 23 14 11 12 8 8 12 12 15 15 15 16 13 13 13
24 24 24 20 29 29 23 20 20 19 18 22 23 22 12 11 13 17 31 33 18 30 29 23 29 22 22 24 21 10 5 7 9 11 14 13 14 15 17 20 20 23 23 19
24 23 22 20 19 20 22 19 10 13 19 23 15 24 20 15 19 22 19 20 4 3 8 26 24 19 19 19 10 10 8 12 15 17 21 23 23 24 24 24 24 25 25 24
21 21 21 20 21 22 21 20 12 12 22 16 24 27 17 25 21 23 16 12 4 2 10 13 18 21 17 9 5 10 14 18 19 22 27 29 33 34 33 32 29 28 26 23
19 19 20 19 18 15 17 18 22 21 19 27 25 18 26 5 16 18 9 6 6 4 8 8 14 21 16 13 13 15 15 18 25 32 33 32 33 30 29 32 31 26 24 22
15 18 19 15 16 15 13 10 13 12 14 19 32 28 9 11 17 15 10 5 5 4 6 7 5 7 4 8 13 15 16 17 18 23 30 30 28 25 29 33 28 23 23 24
7 11 17 16 17 9 11 9 11 10 10 5 13 8 10 10 10 5 8 5 6 2 5 5 4 0 4 5 10 13 17 17 15 13 17 24 20 15 16 16 18 23 25 22
32 23 12 5 6 8 9 9 9 9 13 13 9 11 9 12 6 5 6 5 4 3 4 4 3 4 5 6 10 11 12 8 6 7 13 19 18 17 19 18 18 17 23 23
4 3 4 3 4 5 5 8 9 12 17 14 12 12 9 12 8 4 3 3 4 4 5 6 6 6 9 10 9 8 7 7 7 5 8 15 20 19 21 13 21 19 23 16
0 1 1 4 8 16 11 10 11 10 15 21 20 16 7 11 4 5 5 6 5 6 2 4 5 9 8 10 6 5 5 6 8 10 11 12 14 15 13 10 9 14 18 16
1 2 5 5 7 8 10 11 9 9 12 17 16 12 6 7 5 7 8 6 5 2 8 6 7 7 5 10 11 10 10 10 10 10 11 8 8 9 12 13 14 13 12 14
3 1 2 5 5 6 6 7 9 10 12 16 10 7 6 5 6 9 8 16 19 18 15 17 18 18 13 16 14 13 15 15 13 11 11 11 12 15 15 12 12 10 10 11

GFSNW_700_spd_159.txt.gz
Wind_Speed
32 25 26 24 22 20 19 23 23 26 24 30 37 38 41 33 31 34 29 27 25 26 17 13 21 28 27 15 16 20 27 17 16 22 25 29 32 26 40 16 8 21 16 12
29 26 25 22 20 16 19 25 26 26 24 32 40 42 34 22 38 34 27 26 27 29 24 15 19 16 18 26 26 20 18 12 8 10 16 24 19 37 32 27 16 15 7 8
31 32 30 28 25 24 25 25 26 29 30 31 32 39 39 31 41 30 31 29 30 18 23 22 10 12 11 7 14 15 19 22 17 7 5 9 8 15 20 17 8 8 17 12
35 35 35 34 30 29 29 29 31 31 17 34 36 35 30 33 39 28 36 32 35 40 33 29 21 27 26 14 10 6 10 17 23 28 26 17 9 11 12 18 20 10 15 24
35 37 36 35 35 31 31 31 33 32 31 28 20 27 41 35 30 24 14 29 24 26 28 32 36 32 28 21 7 7 15 20 22 29 26 26 25 27 18 17 18 21 24 32
33 33 40 40 37 38 36 36 34 33 31 30 28 30 22 25 27 21 22 25 20 25 23 26 28 29 28 29 32 35 28 16 15 21 18 17 17 26 20 20 27 29 32 26
35 33 32 41 43 42 40 38 34 34 35 34 35 34 31 32 27 29 26 12 17 17 19 27 32 29 29 27 30 29 28 29 21 10 12 8 14 15 13 14 14 16 21 20
34 34 33 32 44 43 41 40 39 36 37 35 32 29 25 26 29 33 35 33 20 21 15 18 19 25 29 37 37 36 33 27 19 8 10 11 19 20 21 18 17 21 30 23
38 34 34 32 38 40 38 36 33 34 34 37 27 26 25 24 24 26 30 33 36 33 26 19 19 13 18 12 16 21 25 32 33 22 11 6 14 11 11 20 32 16 12 10
38 37 35 36 36 38 36 34 32 31 34 34 31 28 27 25 26 28 27 24 23 29 32 27 26 19 20 16 15 12 19 24 31 31 21 19 29 22 13 16 21 15 15 13
35 38 36 37 36 36 37 31 34 33 34 33 30 26 26 24 25 26 23 19 17 18 24 25 24 19 15 18 16 18 22 15 20 22 16 19 25 18 28 35 27 19 15 8
37 37 39 38 35 34 34 36 32 31 34 31 26 25 21 23 24 25 24 25 21 10 12 9 7 20 17 21 8 21 19 27 20 18 20 27 19 19 23 25 26 18 14 17
34 35 40 40 37 35 38 38 35 34 38 38 38 28 22 24 24 22 31 30 26 29 32 31 18 22 15 21 24 17 21 20 24 21 25 28 29 29 19 16 17 16 17 17
31 31 31 36 38 35 34 38 38 34 38 45 45 23 24 19 23 28 29 28 28 24 25 24 27 30 17 18 21 20 19 16 20 25 28 32 35 31 26 26 17 17 15 16
27 27 28 28 28 30 33 38 36 37 37 25 25 29 22 23 26 26 24 26 25 22 27 29 31 30 27 21 21 23 21 22 24 26 16 10 10 19 15 16 15 16 10 10
25 24 25 24 27 32 34 44 43 41 51 36 27 27 26 19 22 26 23 26 20 19 24 27 33 32 24 8 21 23 13 11 11 13 11 12 8 7 8 10 12 13 12 13
23 24 26 27 26 31 32 24 36 28 23 19 22 23 14 16 26 29 26 27 19 22 28 39 37 32 25 24 22 5 3 4 7 11 16 12 9 13 15 14 14 14 13 13
23 24 27 35 27 29 29 21 15 16 18 16 13 16 24 26 10 18 20 19 14 22 30 26 24 23 27 25 26 19 12 12 10 11 15 16 16 15 16 17 19 21 20 19
26 23 21 25 26 25 20 17 13 12 16 11 15 21 24 8 9 16 16 14 20 10 9 14 23 19 12 16 12 9 10 11 11 13 17 19 21 24 25 25 24 22 22 23
18 17 14 15 13 12 13 12 11 7 8 17 23 22 21 22 15 16 11 11 8 3 4 3 5 9 16 12 8 9 11 13 15 18 18 24 29 29 31 30 30 27 27 27
20 22 19 19 18 16 13 8 7 7 9 17 19 15 21 20 10 12 5 7 5 2 4 5 4 9 10 14 12 12 13 17 20 23 22 20 27 27 28 28 25 24 24 22
11 12 14 15 13 6 6 6 6 8 10 10 9 10 15 15 4 5 4 4 6 3 4 5 5 7 8 6 7 9 10 12 14 15 17 19 19 18 20 18 15 14 15 20
14 14 12 13 12 9 8 11 6 10 8 11 9 6 9 10 5 3 4 3 3 2 2 3 5 7 1 4 6 9 11 11 9 9 8 7 10 13 16 18 15 14 17 17
5 4 7 3 5 8 10 15 15 16 12 12 10 9 5 9 5 3 2 3 3 2 3 4 3 2 1 4 7 8 8 8 7 8 6 7 13 16 18 16 17 16 19 17
2 4 4 5 9 9 9 10 11 12 14 14 14 11 7 11 4 4 4 5 3 3 4 4 2 4 3 3 3 2 4 7 8 9 8 9 11 11 12 14 13 13 10 15
3 2 3 6 9 9 11 10 9 11 16 19 15 9 5 5 4 5 5 3 3 6 3 3 3 3 4 5 9 8 8 9 11 12 12 11 10 9 10 10 10 11 9 10
3 2 2 6 7 8 8 9 9 12 18 22 11 7 5 4 5 6 4 6 8 10 9 9 11 15 18 16 12 10 12 15 14 12 12 12 11 10 12 11 9 8 8 9

GFSNW_700_spd_165.txt.gz
Wind_Speed
40 42 42 40 40 41 41 26 32 34 37 36 35 38 36 27 28 22 18 35 34 22 19 16 18 21 13 8 12 19 18 14 21 21 18 18 19 20 27 8 6 20 28 26
30 31 31 32 30 37 40 39 35 29 36 36 40 33 28 27 29 26 18 9 15 20 30 24 19 20 18 21 12 11 19 12 16 22 25 22 22 23 23 23 25 15 8 3
30 31 30 30 30 26 26 32 30 27 33 35 24 31 28 26 30 29 32 32 29 19 23 28 21 22 20 24 25 17 19 23 22 21 25 9 10 20 24 24 11 9 12 19
30 30 32 30 28 24 31 41 29 28 25 35 33 23 14 22 27 28 21 28 26 19 21 22 31 27 22 23 27 34 17 16 16 25 28 32 21 21 15 16 16 10 15 19
32 32 31 30 31 26 35 38 29 29 13 15 25 24 20 22 21 20 17 17 18 29 20 15 22 16 15 17 15 13 24 12 17 21 19 20 31 33 31 30 27 26 23 30
39 34 33 32 32 34 34 37 32 16 16 14 17 19 18 19 16 16 23 22 23 17 18 22 25 18 31 29 20 20 15 16 15 21 21 22 22 32 30 32 30 28 25 26
41 39 36 34 35 35 28 38 30 22 19 18 17 14 11 14 17 16 15 17 18 16 21 20 15 22 23 26 27 24 27 20 15 18 20 15 15 5 9 14 20 21 23 23
39 40 38 38 37 35 33 30 32 29 21 16 15 16 17 15 16 19 18 19 21 21 25 22 13 10 16 26 30 30 30 27 17 11 17 20 29 15 15 8 12 13 16 17
41 38 39 40 39 35 34 34 30 25 21 22 17 15 15 20 21 24 23 21 16 17 15 14 15 11 7 8 8 17 27 31 29 14 8 7 25 9 4 3 16 13 14 14
39 39 37 38 39 37 35 33 33 30 26 21 16 17 17 15 17 17 13 9 10 12 14 17 20 23 18 19 15 9 12 26 34 32 26 19 29 23 23 16 15 3 9 11
36 41 36 35 37 34 31 27 25 30 31 25 21 20 17 13 14 15 12 6 13 11 13 14 19 17 19 22 26 23 21 10 18 24 19 16 13 14 26 35 29 21 18 16
35 35 39 36 36 36 32 28 24 22 28 17 21 23 19 20 16 14 14 10 6 5 6 8 9 16 12 15 24 18 22 23 7 10 14 14 14 12 14 19 20 19 16 17
35 33 37 38 37 34 32 28 24 22 25 24 23 16 12 19 18 19 19 16 14 15 14 18 13 12 14 20 18 14 19 21 30 20 27 20 19 18 16 17 20 22 22 22
36 33 32 34 33 34 31 30 25 24 20 23 19 11 16 14 20 22 22 20 19 19 18 21 18 19 15 22 24 25 22 28 25 23 24 23 21 21 20 24 27 31 29 23
35 33 33 34 31 33 29 28 27 25 24 6 9 17 17 17 21 23 26 28 27 23 22 26 23 21 22 29 27 37 25 24 24 17 12 12 14 13 14 22 25 12 16 17
33 31 31 35 30 34 30 31 32 29 25 26 26 20 26 27 23 22 27 27 27 28 28 26 25 25 24 18 26 28 24 26 19 21 19 20 16 22 18 15 16 17 22 12
31 30 26 32 30 37 38 36 33 28 27 28 28 25 23 22 18 20 22 20 30 29 27 29 24 21 21 34 44 27 28 25 19 9 14 15 14 11 11 10 12 12 8 15
29 28 26 26 29 38 37 37 30 15 30 36 20 18 22 23 17 16 19 25 27 29 31 27 24 24 27 28 26 24 22 17 15 16 15 13 10 10 9 8 11 10 10 8
29 28 26 26 25 34 39 31 32 34 21 24 21 24 16 15 14 17 23 29 24 23 26 27 24 27 25 25 24 17 11 12 14 15 10 10 9 9 11 12 13 13 12 13
25 27 29 29 33 39 34 31 22 18 21 22 24 14 16 18 19 15 11 15 19 13 26 17 31 32 24 20 25 16 10 12 10 9 10 10 12 16 18 18 18 18 17 19
19 13 19 22 24 23 21 13 14 14 10 17 25 23 18 18 15 16 8 6 10 7 8 14 8 19 21 25 27 16 9 9 10 11 12 14 17 18 18 17 16 15 16 18
17 19 28 23 16 6 5 9 8 7 8 10 10 11 10 15 15 8 7 7 7 4 10 5 5 7 17 12 12 10 10 7 9 9 10 12 12 12 13 13 11 9 10 10
12 19 13 8 7 7 8 11 8 10 7 11 13 14 11 13 11 8 4 4 4 5 6 3 1 4 15 11 9 7 6 7 6 7 8 9 9 9 8 6 5 7 7 8
10 7 7 8 7 9 12 14 13 16 16 9 8 13 9 7 8 4 3 3 4 2 3 3 7 7 7 6 4 3 3 4 5 5 6 8 8 9 9 9 10 13 14 15
4 6 6 12 14 15 13 14 15 16 12 10 13 12 8 9 4 4 4 3 4 4 3 9 7 6 5 4 3 3 4 4 4 6 8 9 11 9 11 12 14 15 16 16
5 5 7 5 6 8 9 10 13 15 16 16 11 6 4 5 3 3 4 3 1 4 9 7 6 4 3 4 5 7 7 8 9 10 11 12 14 12 11 12 11 11 11 11
3 3 4 3 2 3 4 6 7 10 13 13 5 4 3 3 3 4 3 2 5 10 4 3 5 7 8 11 13 15 15 16 16 16 16 14 14 12 10 10 10 10 9 8

GFSNW_700_spd_168.txt.gz
Wind_Speed
41 40 38 38 36 35 34 35 31 29 27 38 41 48 48 32 26 20 32 37 24 26 25 25 25 16 20 12 21 22 13 9 10 18 36 29 20 19 22 18 9 8 5 8
36 36 38 40 40 40 38 38 39 37 30 42 50 47 38 32 26 27 21 19 20 20 15 16 21 24 23 15 18 8 11 6 9 15 15 22 27 28 33 25 20 7 3 8
30 30 28 26 30 31 38 40 38 42 43 41 32 37 34 29 26 28 25 15 15 18 21 23 19 26 22 20 16 16 14 12 11 13 17 18 16 19 13 15 9 11 16 24
27 26 30 27 28 32 26 28 31 27 20 50 44 29 14 30 30 20 20 27 24 18 21 23 28 34 32 28 22 19 21 19 17 23 27 25 26 24 27 23 19 11 18 15
32 29 27 30 31 30 33 27 24 27 27 23 29 37 33 21 13 23 12 18 18 20 18 22 21 22 25 21 7 13 13 9 17 29 27 22 24 27 31 26 29 21 26 27
36 34 31 31 33 35 35 30 25 19 30 28 25 27 30 20 21 17 17 19 22 17 19 22 24 25 25 31 26 25 14 9 10 14 18 23 24 26 23 30 32 37 37 33
39 40 36 34 35 35 32 24 24 24 16 21 23 12 18 17 16 15 11 11 15 15 19 18 25 35 38 30 30 26 25 22 16 20 14 12 20 21 25 26 27 29 37 32
39 40 41 37 36 33 31 26 27 23 24 11 14 15 13 8 10 13 13 16 15 13 15 19 16 21 23 27 29 26 28 26 21 10 17 19 28 33 27 22 28 19 14 17
41 40 42 42 38 34 33 29 26 24 30 19 12 14 14 13 15 15 17 18 19 21 20 15 17 11 16 9 11 23 29 33 32 16 9 7 22 9 7 18 24 16 11 9
42 42 39 40 40 36 34 31 28 23 27 21 11 13 13 13 10 13 15 20 22 14 15 17 19 21 19 25 24 13 11 11 34 34 21 20 24 18 14 10 10 8 8 5
44 41 40 36 38 36 36 30 29 28 25 21 15 18 14 14 10 12 12 14 13 15 17 15 18 15 16 21 25 24 25 15 11 23 18 12 11 14 18 24 25 24 25 28
43 40 41 36 35 35 35 32 28 25 26 19 22 26 22 20 16 16 20 14 3 4 4 7 6 12 17 15 22 19 26 19 14 10 8 10 8 18 18 13 12 22 22 26
38 38 39 39 32 32 33 28 24 25 22 21 24 19 23 22 22 26 21 16 13 14 13 18 13 14 13 16 14 14 15 11 13 20 18 19 17 26 19 11 16 16 18 20
36 32 35 37 32 31 30 30 26 22 19 19 17 12 17 14 20 24 26 23 19 22 20 20 22 20 15 24 24 24 22 20 21 26 24 18 22 19 14 19 24 24 22 26
34 29 33 37 34 31 29 28 26 24 20 6 11 11 11 16 17 17 17 20 24 29 27 33 33 23 22 29 28 33 25 24 26 33 28 30 25 21 4 12 15 21 19 20
33 28 30 32 31 30 30 28 29 26 22 23 14 11 12 13 15 16 20 24 27 25 31 36 34 30 26 25 28 25 13 18 23 32 34 31 21 12 17 14 12 14 17 17
32 29 32 31 31 30 33 31 28 23 22 21 15 17 15 18 17 21 20 18 21 28 31 33 36 33 25 32 39 33 31 24 23 23 28 14 8 11 9 7 7 11 13 17
31 28 27 28 26 25 29 33 19 25 25 21 12 12 15 16 20 20 19 21 23 29 32 37 36 25 24 29 35 29 21 14 16 22 18 13 13 11 9 7 4 8 15 14
31 29 25 24 33 32 33 36 25 17 18 22 24 22 20 17 17 17 21 23 29 32 29 27 26 27 21 32 29 20 10 15 19 17 10 13 8 8 5 5 7 7 6 12
31 24 21 32 31 28 23 38 30 27 26 27 31 24 17 17 17 16 18 18 13 10 19 14 24 33 29 30 23 14 23 14 7 6 7 6 6 7 9 13 12 11 11 13
25 23 18 17 27 28 29 19 21 19 16 22 29 28 22 21 17 16 11 10 8 7 12 11 8 15 11 13 20 15 17 8 5 6 7 8 11 14 15 14 17 17 15 15
22 21 17 18 20 8 7 13 11 8 11 9 10 9 13 16 19 17 13 13 7 6 7 5 5 10 10 5 9 14 10 6 5 4 4 7 10 10 10 10 10 9 11 11
13 16 20 10 7 5 10 12 10 11 10 12 12 12 13 15 16 11 8 7 6 6 4 3 6 9 9 12 15 10 6 4 3 3 3 6 6 7 8 7 5 5 6 6
9 6 7 6 6 7 9 10 12 15 13 12 13 12 9 14 10 6 4 3 2 4 3 2 3 6 4 1 3 4 3 2 0 0 1 3 6 7 9 10 10 9 11 12
4 5 5 9 9 11 13 16 15 16 17 15 13 12 14 12 5 5 3 3 4 4 2 7 4 5 5 6 5 4 3 2 0 3 5 8 10 12 13 13 14 14 15 16
4 4 6 7 10 16 16 17 19 16 16 15 17 14 7 7 6 4 5 3 3 3 3 8 7 4 4 4 5 7 8 8 9 10 11 11 11 13 15 16 16 15 13 11
3 3 5 8 7 3 16 17 17 16 18 19 14 7 4 7 4 4 4 4 2 8 6 3 1 3 4 6 8 10 11 13 14 15 15 15 15 16 15 15 16 13 11 9

GFSNW_700_spd_174.txt.gz
Wind_Speed
32 35 38 35 31 29 30 30 28 27 26 26 30 36 33 34 36 33 28 30 37 36 39 41 34 25 19 20 7 12 9 12 11 22 30 22 19 15 6 9 3 6 8 8
28 32 36 35 29 30 29 30 29 28 23 27 34 32 29 30 33 34 27 31 30 31 33 16 19 18 24 35 28 21 28 12 16 16 3 7 8 16 20 16 10 3 7 2
26 28 29 28 27 28 29 29 25 29 29 32 29 27 28 29 33 35 32 33 32 34 31 22 12 11 17 20 23 21 18 17 18 11 24 27 31 27 27 16 7 20 22 22
33 31 32 32 30 29 32 34 35 35 21 37 36 29 30 32 34 31 33 32 38 43 34 23 24 22 17 13 22 9 8 16 21 31 36 26 26 27 28 23 24 17 27 30
33 35 36 35 33 34 34 37 39 39 37 35 26 17 27 27 28 32 40 35 34 31 28 21 10 15 21 21 20 19 21 17 25 30 26 19 19 27 30 24 31 27 28 35
35 33 32 33 35 40 40 38 39 31 31 32 29 32 26 25 23 25 23 26 19 8 13 11 12 20 24 25 25 25 24 25 19 19 21 18 22 38 33 31 28 26 27 28
37 38 38 34 34 37 38 40 37 24 17 17 21 22 17 18 17 17 11 15 13 10 8 12 14 16 20 23 27 23 26 23 22 23 19 8 31 27 21 18 25 28 34 35
39 39 40 40 37 31 35 36 36 37 24 20 17 15 16 19 17 18 10 7 0 5 9 12 12 16 19 19 25 20 17 23 20 12 17 20 28 16 9 5 15 7 16 23
37 40 39 42 40 36 31 31 30 30 22 22 16 21 20 20 15 12 12 11 12 10 12 12 5 5 8 8 16 17 12 17 27 17 7 6 12 7 8 18 24 7 13 8
38 39 40 41 40 36 33 31 28 26 24 15 25 22 25 20 18 15 12 13 12 13 15 16 17 15 17 11 15 17 23 23 22 27 22 16 19 21 18 12 17 18 19 24
40 40 42 42 42 38 37 31 28 26 24 26 15 20 16 18 16 16 15 13 15 13 13 11 13 10 10 14 18 17 20 15 17 13 8 9 13 15 14 16 24 25 20 13
39 39 39 39 41 42 36 31 27 26 25 16 22 21 19 20 21 17 18 18 11 7 9 9 6 10 12 15 14 15 8 10 17 15 17 14 18 24 18 22 27 26 14 10
35 37 37 38 37 39 39 31 27 26 23 21 17 24 19 21 19 19 19 21 20 20 20 16 14 15 16 17 17 22 26 26 23 30 25 14 17 22 15 20 22 21 19 9
32 32 33 35 36 34 35 34 29 25 21 21 7 15 21 19 23 22 25 25 23 21 18 20 22 27 18 25 29 35 36 35 33 33 31 28 25 22 19 18 12 11 17 13
30 30 31 33 34 32 30 30 29 25 21 9 17 17 11 15 22 19 18 18 15 21 26 28 32 34 33 36 38 43 38 37 31 33 27 24 23 22 19 18 10 6 6 6
29 30 32 32 36 33 31 27 29 28 25 20 6 8 15 12 9 10 10 12 15 19 23 29 35 38 33 32 41 46 36 30 24 27 26 26 20 22 21 19 13 5 3 5
32 30 34 30 32 31 34 30 30 28 22 18 14 7 8 10 11 13 12 12 15 21 27 36 40 40 35 41 46 46 39 35 26 25 24 23 22 20 15 7 2 3 1 6
30 30 29 33 28 27 28 20 18 22 21 16 6 5 7 10 8 8 8 13 17 26 29 34 39 41 42 44 40 35 34 23 24 17 19 20 21 6 9 5 3 2 5 10
31 32 35 37 31 29 26 18 14 19 22 12 10 12 6 7 6 6 12 17 24 26 31 33 33 34 34 41 34 27 17 11 13 16 16 15 10 9 13 9 9 10 10 12
34 33 37 36 32 28 23 18 14 12 19 24 19 12 12 9 11 11 15 14 13 20 21 17 23 37 36 11 4 4 4 8 12 10 10 10 14 12 9 12 11 11 10 12
34 43 26 32 29 23 20 9 14 12 10 14 20 19 18 16 17 19 11 9 9 10 9 11 10 21 20 1 3 8 6 8 11 7 0 8 12 8 10 11 10 9 8 9
23 32 22 31 27 9 11 10 10 8 13 9 5 5 7 11 16 12 7 9 6 8 12 7 7 15 12 8 4 4 11 14 10 8 6 7 6 7 6 3 3 3 4 5
15 28 23 14 11 9 10 13 12 14 13 12 14 14 12 9 8 7 6 5 8 10 5 5 7 15 17 17 12 6 7 7 7 6 6 4 3 2 2 1 1 2 3 4
24 10 10 6 7 8 11 18 21 17 15 15 11 9 8 9 5 6 5 6 6 5 4 0 4 8 9 11 9 7 7 8 10 11 10 8 6 5 2 2 2 3 4 4
7 6 5 8 9 11 14 13 14 13 13 15 16 14 12 7 7 5 5 4 4 4 6 6 9 10 11 11 11 11 10 9 8 6 4 2 1 2 4 5 6 6 6 7
4 4 4 5 7 9 9 12 15 14 16 14 17 16 5 9 6 6 6 4 4 4 11 7 7 6 6 6 6 5 5 4 4 4 5 6 7 7 7 8 8 9 10 10
5 7 6 6 5 9 14 18 17 16 15 17 15 7 7 4 6 7 5 6 4 4 8 5 4 4 4 5 6 6 7 7 8 9 9 9 9 10 10 10 10 10 10 10

GFSNW_700_spd_180.txt.gz
Wind_Speed
31 34 34 35 38 40 42 43 39 36 34 38 37 37 31 22 27 18 15 16 16 15 14 17 17 14 16 21 25 22 21 14 20 31 32 25 18 13 21 12 9 15 14 7
37 33 36 40 41 44 45 41 38 36 37 39 36 35 34 25 24 23 22 17 13 15 15 10 9 13 16 17 17 8 15 6 8 11 9 11 12 24 26 25 23 20 6 13
32 32 35 40 40 40 39 43 31 32 37 41 37 36 30 29 28 26 21 17 18 19 18 17 13 15 15 15 18 20 24 19 15 11 19 19 27 28 30 25 16 26 30 36
30 37 42 40 40 41 42 47 36 39 40 42 37 31 21 32 25 17 16 19 21 18 21 21 25 26 23 27 29 27 21 19 19 23 26 28 30 35 33 31 37 25 43 41
29 32 35 36 36 38 42 42 39 38 18 32 30 30 34 28 20 23 23 21 19 19 25 24 25 24 27 29 22 25 24 21 21 26 29 28 29 32 34 35 35 28 29 37
21 25 28 30 35 35 38 37 36 29 30 25 29 33 29 25 21 19 21 19 19 21 25 23 22 21 24 25 18 14 19 20 16 23 22 14 16 35 30 29 31 28 28 28
28 28 27 29 36 39 37 35 36 34 26 30 29 25 21 19 18 17 16 17 15 16 12 14 14 17 17 17 15 18 22 21 13 18 20 3 25 15 25 31 34 29 24 29
27 35 33 30 31 36 37 36 37 36 31 25 25 24 20 17 19 20 17 14 11 7 12 8 7 7 9 13 15 20 22 22 12 6 10 21 33 15 13 20 24 25 26 23
28 28 30 35 34 34 33 36 34 33 30 29 23 21 20 21 21 21 17 12 12 12 14 10 5 4 4 4 5 11 11 10 16 10 6 6 20 20 28 33 33 19 22 27
28 30 32 38 35 35 33 33 34 30 26 23 21 23 23 24 23 19 16 16 22 17 16 12 6 6 6 6 6 9 14 13 21 26 12 16 22 20 26 11 14 19 17 15
30 30 31 34 36 31 31 31 30 26 26 22 23 22 19 18 19 18 18 24 23 20 16 11 10 8 9 9 14 13 15 11 14 13 10 10 13 23 23 30 31 19 18 26
30 31 32 32 36 35 33 28 26 28 25 18 22 23 27 21 18 21 20 24 19 19 15 15 9 9 11 16 16 17 21 24 16 16 19 25 27 24 27 26 32 26 31 34
32 32 32 32 31 32 34 29 25 22 20 19 20 25 23 23 22 25 26 24 22 18 16 15 11 15 18 22 25 25 28 26 27 27 30 32 32 33 32 25 25 27 31 33
32 32 33 32 31 32 28 32 29 22 18 20 16 21 23 18 26 27 27 26 22 21 20 21 24 26 23 29 30 33 30 28 32 32 37 36 33 32 29 23 27 29 30 30
30 31 30 29 27 32 29 30 28 24 20 10 16 11 14 14 19 22 25 23 22 22 21 25 30 31 29 34 37 44 37 37 40 45 38 35 37 32 26 24 25 29 29 28
29 29 29 28 25 31 31 28 24 24 26 7 12 17 11 15 22 23 23 22 21 23 25 28 31 30 28 27 41 47 40 41 38 44 39 37 38 36 26 27 25 25 25 23
29 30 32 29 29 33 32 28 29 27 24 15 7 9 14 15 15 18 20 22 25 25 26 31 30 30 32 44 54 52 50 49 48 44 41 36 30 28 23 23 22 19 21 17
28 35 31 32 25 29 39 27 20 24 21 18 5 5 9 14 17 16 16 15 15 19 23 28 31 32 33 39 49 45 43 40 35 25 17 24 21 25 18 17 15 13 7 5
33 34 32 28 30 31 27 17 13 24 20 11 11 9 6 13 14 13 11 12 16 19 27 29 24 27 27 38 38 37 28 22 19 16 19 15 21 16 14 15 15 14 1 4
35 34 28 38 35 30 19 13 15 20 22 19 13 11 6 10 13 11 7 9 11 13 16 13 16 27 27 26 21 18 17 14 10 13 15 15 11 11 13 12 15 11 7 8
31 33 28 31 26 22 13 8 10 11 8 17 20 14 11 9 10 9 5 5 5 5 4 6 7 14 20 11 12 11 10 7 7 9 11 12 11 11 10 10 4 8 9 7
33 35 31 25 23 12 5 10 7 6 7 7 14 18 18 14 12 8 6 7 5 6 7 6 5 11 11 11 10 12 2 5 5 3 7 6 11 8 6 5 5 4 2 1
27 21 22 12 11 8 7 10 8 7 8 10 14 16 17 17 15 8 6 5 6 6 5 4 8 15 5 13 6 13 9 9 9 9 13 12 11 8 5 4 2 1 2 4
20 14 10 7 6 6 5 10 10 8 6 7 12 10 11 10 9 7 4 5 5 5 4 4 6 6 7 10 14 13 12 12 12 12 11 10 9 6 3 2 2 3 5 8
15 10 5 9 8 6 7 9 10 12 12 9 9 11 10 8 6 5 5 4 5 4 4 4 3 5 4 6 7 6 6 7 7 7 6 6 5 5 6 6 7 9 10 12
8 7 6 9 12 8 10 10 11 11 13 14 13 10 6 8 5 6 6 4 5 4 10 5 2 2 3 4 6 6 6 5 6 6 6 6 7 8 9 11 13 14 15 14
4 6 8 7 9 10 9 7 9 11 16 20 12 8 8 6 6 7 6 9 11 16 4 5 3 1 2 3 5 7 9 10 12 12 12 11 11 11 12 11 11 10 10 10